CW0121 Weather Reports


Display with metric or nautical units.
time (UTC)temp
F
wind
direction
speed
MPH
gust
MPH
rain 1hr
in
rain 24hr
in
rain mn
in
humidity
%
barometer
mb
20260902191538 82 86 5.0 15.0 0.00 0.01 0.01 51 1012.0
20260902191519 82 128 4.0 15.0 0.00 0.01 0.01 51 1008.3
20260902191016 81 120 6.0 15.0 0.00 0.01 0.01 52 1012.1
20260902190514 82 60 6.0 13.0 0.00 0.01 0.01 50 1012.1
20260902190018 82 85 6.0 13.0 0.00 0.01 0.01 52 1008.3
20260902190008 82 58 7.0 13.0 0.00 0.01 0.01 52 1012.1
20260902185507 82 86 5.0 13.0 0.00 0.01 0.01 51 1012.1
20260902185006 82 105 4.0 14.0 0.00 0.01 0.01 52 1012.2
20260902184520 82 8 8.0 14.0 0.00 0.01 0.01 51 1012.3
20260902184514 82 57 7.0 14.0 0.00 0.01 0.01 52 1008.5
20260902184011 82 75 10.0 14.0 0.00 0.01 0.01 52 1012.4
20260902183508 82 79 6.0 11.0 0.00 0.01 0.01 52 1012.4
20260902183020 82 77 6.0 11.0 0.00 0.01 0.01 50 1012.4
20260902183013 82 81 5.0 11.0 0.00 0.01 0.01 51 1008.7
20260902182514 82 61 5.0 10.0 0.00 0.01 0.01 53 1012.5
20260902182016 82 132 4.0 11.0 0.00 0.01 0.01 54 1012.5
20260902181527 81 51 6.0 12.0 0.00 0.01 0.01 54 1012.5
20260902181510 81 49 6.0 12.0 0.00 0.01 0.01 55 1008.8
20260902181011 81 51 5.0 12.0 0.00 0.01 0.01 53 1012.5
20260902180515 81 40 5.0 14.0 0.00 0.01 0.01 53 1012.7
20260902180032 81 98 6.0 14.0 0.00 0.01 0.01 53 1012.7
20260902180008 81 117 5.0 14.0 0.00 0.01 0.01 53 1008.9
20260902175516 81 63 6.0 10.0 0.00 0.01 0.01 52 1012.7
20260902175014 81 101 4.0 9.0 0.00 0.01 0.01 55 1012.7
20260902174512 80 60 3.0 11.0 0.00 0.01 0.01 55 1012.8
20260902174505 80 86 3.0 10.0 0.00 0.01 0.01 56 1008.9
20260902174008 80 41 6.0 11.0 0.00 0.01 0.01 55 1012.8
20260902173507 80 77 4.0 11.0 0.00 0.01 0.01 55 1012.8
20260902173017 80 131 5.0 10.0 0.00 0.01 0.01 56 1012.8
20260902173008 80 131 5.0 10.0 0.00 0.01 0.01 56 1009.1
20260902172508 79 86 5.0 10.0 0.00 0.01 0.01 54 1012.8
20260902172014 79 49 4.0 10.0 0.00 0.01 0.01 55 1012.9
20260902171525 79 51 5.0 10.0 0.00 0.01 0.01 56 1012.9
20260902171501 79 51 4.0 10.0 0.00 0.01 0.01 57 1009.2
20260902171017 79 52 7.0 10.0 0.00 0.01 0.01 56 1012.9
20260902170511 78 61 3.0 8.0 0.00 0.01 0.01 58 1012.9
20260902170059 78 63 3.0 8.0 0.00 0.01 0.01 58 1009.4
20260902170030 78 72 4.0 8.0 0.00 0.01 0.01 57 1012.9
20260902165515 78 90 3.0 11.0 0.00 0.01 0.01 58 1012.9
20260902165015 78 124 5.0 11.0 0.00 0.01 0.01 57 1012.8
20260902164559 78 66 6.0 10.0 0.00 0.01 0.01 57 1009.3
20260902164536 78 64 5.0 12.0 0.00 0.01 0.01 58 1012.8
20260902164014 78 108 4.0 12.0 0.00 0.01 0.01 57 1012.8
20260902163516 78 82 6.0 13.0 0.00 0.01 0.01 57 1012.8
20260902163100 78 108 4.0 13.0 0.00 0.01 0.01 57 1009.2
20260902163013 78 94 5.0 13.0 0.00 0.01 0.01 57 1012.7
20260902162508 77 117 7.0 12.0 0.00 0.01 0.01 56 1012.7
20260902162011 77 130 6.0 12.0 0.00 0.01 0.01 58 1012.7
20260902161602 77 17 3.0 10.0 0.00 0.01 0.01 63 1009.2
20260902161520 77 115 4.0 11.0 0.00 0.01 0.01 63 1012.7
20260902161009 76 63 5.0 11.0 0.00 0.01 0.01 62 1012.6
20260902160516 76 352 3.0 11.0 0.00 0.01 0.01 64 1012.6
20260902160053 75 68 5.0 11.0 0.00 0.01 0.01 62 1009.2
20260902160026 75 102 5.0 12.0 0.00 0.01 0.01 61 1012.7
20260902155514 75 98 5.0 12.0 0.00 0.01 0.01 63 1012.7
20260902155015 75 91 6.0 12.0 0.00 0.01 0.01 62 1012.7
20260902154548 75 52 4.0 9.0 0.00 0.01 0.01 64 1009.4
20260902154545 75 74 5.0 9.0 0.00 0.01 0.01 65 1012.8
20260902154019 75 70 5.0 11.0 0.00 0.01 0.01 64 1012.8
20260902153516 75 82 5.0 11.0 0.00 0.01 0.01 64 1012.8
20260902153048 75 101 5.0 11.0 0.00 0.01 0.01 63 1009.4
20260902153032 75 98 4.0 12.0 0.00 0.01 0.01 63 1012.8
20260902152516 75 91 6.0 12.0 0.00 0.01 0.01 64 1012.7
20260902152016 75 100 4.0 8.0 0.00 0.01 0.01 67 1012.7
20260902151546 74 91 4.0 9.0 0.00 0.01 0.01 68 1009.2
20260902151520 74 39 5.0 9.0 0.00 0.01 0.01 69 1012.7
20260902151008 74 38 5.0 9.0 0.00 0.01 0.01 70 1012.8
20260902150510 73 118 2.0 8.0 0.00 0.01 0.01 74 1012.8
20260902150041 72 69 4.0 8.0 0.00 0.01 0.01 75 1009.3
20260902150024 72 105 5.0 8.0 0.00 0.01 0.01 74 1013.0
20260902145512 72 44 4.0 7.0 0.00 0.01 0.01 74 1013.0
20260902145013 72 56 4.0 9.0 0.00 0.01 0.01 75 1013.1
20260902144638 71 103 2.0 9.0 0.00 0.01 0.01 75 1009.6
20260902144529 72 58 5.0 9.0 0.00 0.01 0.01 74 1013.2
20260902144016 72 57 5.0 7.0 0.00 0.01 0.01 74 1013.3
20260902143520 71 103 3.0 6.0 0.00 0.01 0.01 74 1013.4
20260902143035 71 32 2.0 6.0 0.00 0.01 0.01 75 1009.9
20260902143028 71 54 2.0 6.0 0.00 0.01 0.01 75 1013.4
20260902142517 71 83 3.0 5.0 0.00 0.01 0.01 74 1013.4
20260902142017 70 114 2.0 3.0 0.00 0.01 0.01 76 1013.3
20260902141536 70 133 1.0 2.0 0.00 0.01 0.01 76 1013.3
20260902141531 70 142 1.0 2.0 0.00 0.01 0.01 77 1009.8
20260902141016 69 89 0.0 2.0 0.00 0.01 0.01 77 1013.4
20260902140516 68 118 1.0 3.0 0.00 0.01 0.01 78 1013.5
20260902140034 67 110 1.0 3.0 0.00 0.01 0.01 80 1010.0
20260902140020 67 148 2.0 4.0 0.00 0.01 0.01 79 1013.5
20260902135507 66 116 1.0 4.0 0.00 0.01 0.01 81 1013.5
20260902135012 66 104 1.0 3.0 0.00 0.01 0.01 82 1013.5
20260902134529 66 110 0.0 1.0 0.00 0.01 0.01 83 1010.2
20260902134526 66 233 0.0 1.0 0.00 0.01 0.01 83 1013.6
20260902134011 65 233 0.0 1.0 0.00 0.01 0.01 84 1013.8
20260902133511 65 233 0.0 1.0 0.00 0.01 0.01 84 1013.9
20260902133033 65 233 0.0 1.0 0.00 0.01 0.01 85 1010.5
20260902133027 65 233 0.0 1.0 0.00 0.01 0.01 84 1013.9
20260902132516 65 229 0.0 2.0 0.00 0.01 0.01 85 1013.9
20260902132015 65 236 1.0 2.0 0.00 0.01 0.01 83 1013.8
20260902131535 65 3 0.0 0.0 0.00 0.01 0.01 83 1010.3
20260902131508 65 3 0.0 1.0 0.00 0.01 0.01 83 1013.7
20260902131004 65 3 0.0 1.0 0.00 0.01 0.01 83 1013.5
20260902130507 65 3 0.0 3.0 0.00 0.01 0.01 82 1013.5
20260902130028 65 313 0.0 6.0 0.00 0.01 0.01 82 1013.5
20260902130026 65 313 0.0 6.0 0.00 0.01 0.01 83 1010.2
20260902125505 64 23 2.0 7.0 0.00 0.01 0.01 82 1013.6
20260902125012 64 23 3.0 9.0 0.00 0.01 0.01 83 1013.2
20260902124531 64 51 3.0 9.0 0.00 0.01 0.01 84 1009.6
20260902124523 64 51 4.0 10.0 0.00 0.01 0.01 83 1013.0
20260902124011 64 68 5.0 10.0 0.00 0.01 0.01 83 1012.8
20260902123512 64 80 5.0 7.0 0.00 0.01 0.01 84 1012.9
20260902123029 64 44 4.0 7.0 0.00 0.01 0.01 84 1013.1
20260902123024 64 44 3.0 7.0 0.00 0.01 0.01 85 1009.8
20260902122504 64 63 4.0 7.0 0.00 0.01 0.01 83 1013.4
20260902122005 64 56 3.0 5.0 0.00 0.01 0.01 83 1013.4
20260902121524 64 57 3.0 6.0 0.00 0.01 0.01 83 1010.1
20260902121506 64 51 3.0 6.0 0.00 0.01 0.01 83 1013.5
20260902121003 64 60 4.0 6.0 0.00 0.01 0.01 83 1013.5
20260902120504 64 70 0.0 3.0 0.00 0.01 0.01 82 1013.9
20260902120026 64 53 0.0 3.0 0.01 0.01 0.01 83 1010.6
20260902120014 64 53 0.0 3.0 0.01 0.01 0.01 82 1014.0
20260902115503 64 8 1.0 4.0 0.01 0.01 0.01 81 1013.9
20260902115014 64 98 2.0 4.0 0.01 0.01 0.01 80 1013.8
20260902114538 65 63 1.0 4.0 0.01 0.01 0.01 81 1010.3
20260902114523 65 65 1.0 4.0 0.01 0.01 0.01 80 1013.6
20260902114010 65 63 2.0 4.0 0.01 0.01 0.01 79 1013.7
20260902113509 65 80 0.0 6.0 0.01 0.01 0.01 79 1013.7
20260902113026 65 60 2.0 6.0 0.01 0.01 0.01 79 1013.5
20260902113020 65 60 1.0 6.0 0.01 0.01 0.01 80 1010.2
20260902112511 65 68 3.0 6.0 0.01 0.01 0.01 80 1013.6
20260902112014 65 131 0.0 1.0 0.01 0.01 0.01 79 1014.2
20260902111532 65 150 0.0 3.0 0.01 0.01 0.01 80 1014.5
20260902111520 65 179 0.0 3.0 0.01 0.01 0.01 80 1011.2
20260902111003 65 356 0.0 6.0 0.01 0.01 0.01 79 1014.2
20260902110503 65 347 2.0 6.0 0.01 0.01 0.01 80 1013.7
20260902110025 65 61 3.0 5.0 0.00 0.00 0.00 79 1010.2
20260902110008 65 64 3.0 5.0 0.00 0.00 0.00 78 1013.6
20260902105503 65 58 2.0 3.0 0.00 0.00 0.00 77 1014.0
20260902105009 65 95 0.0 2.0 0.00 0.00 0.00 78 1014.1
20260902104527 65 91 0.0 4.0 0.00 0.00 0.00 79 1010.6
20260902104519 65 91 1.0 4.0 0.00 0.00 0.00 78 1014.0
20260902104008 65 10 1.0 4.0 0.00 0.00 0.00 78 1013.9
20260902103507 65 44 2.0 4.0 0.00 0.00 0.00 78 1014.1
20260902103032 65 34 2.0 6.0 0.00 0.00 0.00 79 1013.9
20260902103022 65 59 1.0 5.0 0.00 0.00 0.00 79 1010.6
20260902102510 65 56 2.0 6.0 0.00 0.00 0.00 79 1013.6
20260902102010 65 38 4.0 6.0 0.00 0.00 0.00 80 1013.5
20260902101523 65 34 4.0 7.0 0.00 0.00 0.00 79 1013.7
20260902101516 65 43 3.0 6.0 0.00 0.00 0.00 79 1010.3
20260902101011 65 34 3.0 7.0 0.00 0.00 0.00 77 1013.7
20260902100514 65 48 4.0 7.0 0.00 0.00 0.00 79 1013.5
20260902100027 65 60 4.0 7.0 0.00 0.00 0.00 79 1013.3
20260902100014 65 63 4.0 7.0 0.00 0.00 0.00 79 1010.1
20260902095503 65 65 4.0 7.0 0.00 0.00 0.00 79 1013.3
20260902095003 65 60 3.0 8.0 0.00 0.00 0.00 79 1013.4
20260902094513 65 70 4.0 8.0 0.00 0.00 0.00 81 1009.8
20260902094007 65 49 5.0 8.0 0.00 0.00 0.00 81 1013.1
20260902093507 65 14 6.0 8.0 0.00 0.00 0.00 82 1013.2
20260902093020 65 54 4.0 7.0 0.00 0.00 0.00 83 1013.3
20260902093011 65 39 3.0 7.0 0.00 0.00 0.00 83 1009.9
20260902092509 65 63 3.0 7.0 0.00 0.00 0.00 83 1013.3
20260902092010 65 34 3.0 7.0 0.00 0.00 0.00 83 1013.3
20260902091526 65 62 4.0 6.0 0.00 0.00 0.00 83 1013.3
20260902091510 65 51 3.0 6.0 0.00 0.00 0.00 84 1009.9
20260902091012 65 60 3.0 6.0 0.00 0.00 0.00 82 1013.4
20260902090514 66 69 4.0 9.0 0.00 0.00 0.00 81 1013.3
20260902090028 66 74 5.0 9.0 0.00 0.00 0.00 82 1013.4
20260902090006 66 78 4.0 9.0 0.00 0.00 0.00 82 1010.1
20260902085518 66 39 3.0 6.0 0.00 0.00 0.00 82 1013.4
20260902085013 66 58 4.0 6.0 0.00 0.00 0.00 82 1013.5
20260902084529 67 56 3.0 5.0 0.00 0.00 0.00 81 1013.5
20260902084511 67 56 2.0 5.0 0.00 0.00 0.00 81 1010.3
20260902084003 67 57 3.0 5.0 0.00 0.00 0.00 80 1013.5
20260902083504 67 53 2.0 5.0 0.00 0.00 0.00 80 1013.4
20260902083012 67 54 3.0 5.0 0.00 0.00 0.00 81 1013.4
20260902083003 67 54 2.0 5.0 0.00 0.00 0.00 81 1010.1
20260902082507 67 60 1.0 5.0 0.00 0.00 0.00 81 1013.6
20260902082008 67 69 3.0 4.0 0.00 0.00 0.00 81 1013.6
20260902081519 67 66 2.0 6.0 0.00 0.00 0.00 81 1013.5
20260902081503 67 66 2.0 6.0 0.00 0.00 0.00 81 1010.2
20260902081010 67 49 3.0 6.0 0.00 0.00 0.00 80 1013.5
20260902080510 67 53 4.0 7.0 0.00 0.00 0.00 80 1013.3
20260902080028 67 58 3.0 7.0 0.00 0.00 0.00 82 1013.4
20260902080003 67 58 2.0 7.0 0.00 0.00 0.00 82 1010.0
20260902075513 67 34 4.0 7.0 0.00 0.00 0.00 83 1013.5
20260902075013 67 354 3.0 7.0 0.00 0.00 0.00 83 1013.7
20260902074613 67 340 4.0 7.0 0.00 0.00 0.00 83 1010.5
20260902074528 67 335 4.0 7.0 0.00 0.00 0.00 82 1013.9
20260902074014 67 335 2.0 4.0 0.00 0.00 0.00 80 1013.8
20260902073512 67 19 3.0 4.0 0.00 0.00 0.00 80 1013.7
20260902073106 67 53 1.0 4.0 0.00 0.00 0.00 80 1010.4
20260902073032 67 40 2.0 4.0 0.00 0.00 0.00 80 1013.6
20260902072506 67 43 1.0 3.0 0.00 0.00 0.00 80 1013.5
20260902072006 67 20 1.0 5.0 0.00 0.00 0.00 79 1013.4
20260902071603 67 65 1.0 5.0 0.00 0.00 0.00 80 1010.1
20260902071519 67 75 2.0 5.0 0.00 0.00 0.00 80 1013.3
20260902071008 67 64 3.0 5.0 0.00 0.00 0.00 80 1013.3
20260902070509 67 49 3.0 5.0 0.00 0.00 0.00 80 1013.3
20260902070059 67 58 2.0 6.0 0.00 0.00 0.00 81 1010.0
20260902070020 67 49 2.0 6.0 0.00 0.00 0.00 82 1013.3
20260902065510 67 43 2.0 6.0 0.00 0.00 0.00 83 1013.3
20260902065012 67 55 4.0 6.0 0.00 0.00 0.00 83 1013.3
20260902064601 67 14 2.0 5.0 0.00 0.00 0.00 84 1009.9
20260902064527 67 33 3.0 5.0 0.00 0.00 0.00 83 1013.3
20260902064014 67 62 2.0 5.0 0.00 0.00 0.00 83 1013.4
20260902063517 67 28 3.0 5.0 0.00 0.00 0.00 82 1013.4
20260902063057 67 40 2.0 4.0 0.00 0.00 0.00 82 1010.1
20260902063028 67 58 3.0 4.0 0.00 0.00 0.00 81 1013.4
20260902062517 68 37 2.0 5.0 0.00 0.00 0.00 80 1013.6
20260902062004 68 56 3.0 5.0 0.00 0.00 0.00 80 1013.6
20260902061556 68 54 2.0 5.0 0.00 0.00 0.00 80 1010.2
20260902061514 68 62 3.0 5.0 0.00 0.00 0.00 80 1013.6
20260902061011 68 37 2.0 5.0 0.00 0.00 0.00 80 1013.7
20260902060508 68 46 2.0 6.0 0.00 0.00 0.00 81 1013.8
20260902060058 68 65 1.0 6.0 0.00 0.00 0.00 81 1010.5
20260902060018 68 58 1.0 6.0 0.00 0.00 0.00 81 1013.8
20260902055510 68 72 3.0 6.0 0.00 0.00 0.00 82 1013.8
20260902055010 68 43 2.0 4.0 0.00 0.00 0.00 83 1013.7
20260902054552 68 18 1.0 2.0 0.00 0.00 0.00 84 1010.6
20260902054531 68 18 1.0 2.0 0.00 0.00 0.00 84 1013.9
20260902054009 68 347 1.0 3.0 0.00 0.00 0.00 83 1013.9
20260902053514 68 36 1.0 4.0 0.00 0.00 0.00 83 1013.9
20260902053101 68 319 1.0 4.0 0.00 0.00 0.00 83 1010.6
20260902053026 68 320 2.0 4.0 0.00 0.00 0.00 83 1014.0
20260902052502 69 338 3.0 4.0 0.00 0.00 0.00 81 1014.1
20260902052003 69 82 0.0 2.0 0.00 0.00 0.00 80 1014.1
20260902051552 69 152 1.0 2.0 0.00 0.00 0.00 80 1010.6
20260902051509 69 153 2.0 2.0 0.00 0.00 0.00 80 1014.0
20260902051002 69 95 0.0 3.0 0.00 0.00 0.00 80 1013.8
20260902050506 69 63 1.0 5.0 0.00 0.00 0.00 80 1013.8
20260902050044 69 51 1.0 6.0 0.00 0.00 0.00 81 1010.4
20260902050015 69 51 2.0 6.0 0.00 0.00 0.00 80 1013.8
20260902045507 69 68 2.0 6.0 0.00 0.00 0.00 81 1013.6
20260902045010 69 109 2.0 6.0 0.00 0.00 0.00 81 1013.6
20260902044541 69 100 2.0 6.0 0.00 0.00 0.00 82 1010.1
20260902044520 69 65 2.0 6.0 0.00 0.00 0.00 82 1013.6
20260902044012 69 76 3.0 6.0 0.00 0.00 0.00 82 1013.7
20260902043511 69 55 3.0 6.0 0.00 0.00 0.00 82 1013.6
20260902043040 69 74 2.0 5.0 0.00 0.00 0.00 82 1010.2
20260902043031 69 67 3.0 6.0 0.00 0.00 0.00 82 1013.6
20260902042514 69 71 3.0 6.0 0.00 0.00 0.00 82 1013.4
20260902042011 69 48 3.0 8.0 0.00 0.00 0.00 82 1013.3
20260902041541 69 39 4.0 8.0 0.00 0.00 0.00 82 1009.9
20260902041531 69 56 5.0 8.0 0.00 0.00 0.00 81 1013.4
20260902041003 70 25 4.0 7.0 0.00 0.00 0.00 81 1013.4
20260902040503 70 63 2.0 6.0 0.00 0.00 0.00 80 1013.5
20260902040038 70 51 3.0 7.0 0.00 0.00 0.00 80 1010.1
20260902040011 70 58 2.0 7.0 0.00 0.00 0.00 80 1013.6
20260902035504 70 20 3.0 8.0 0.00 0.00 0.00 80 1013.6
20260902035010 70 59 5.0 8.0 0.00 0.00 0.00 81 1013.6
20260902034542 70 60 3.0 6.0 0.00 0.00 0.00 82 1010.3
20260902034516 70 59 4.0 6.0 0.00 0.00 0.00 81 1013.7
20260902034010 70 27 3.0 5.0 0.00 0.00 0.00 81 1014.0
20260902033507 70 54 2.0 5.0 0.00 0.00 0.00 81 1014.2
20260902033036 70 57 1.0 5.0 0.00 0.00 0.00 82 1010.8
20260902033026 70 69 1.0 5.0 0.00 0.00 0.00 81 1014.2
20260902032512 70 74 2.0 6.0 0.00 0.00 0.00 82 1014.2
20260902032018 70 63 3.0 6.0 0.00 0.00 0.00 81 1014.2
20260902031535 70 56 2.0 4.0 0.00 0.00 0.00 81 1010.8
20260902031529 70 64 3.0 5.0 0.00 0.00 0.00 81 1014.0
20260902031016 70 53 2.0 6.0 0.00 0.00 0.00 81 1014.1
20260902030515 71 32 3.0 8.0 0.00 0.00 0.00 80 1014.0
20260902030033 71 39 3.0 8.0 0.00 0.00 0.00 79 1010.6
20260902030028 71 50 4.0 8.0 0.00 0.00 0.00 79 1013.8
20260902025503 71 63 3.0 6.0 0.00 0.00 0.00 79 1013.9
20260902025007 70 51 4.0 7.0 0.00 0.00 0.00 80 1014.0
20260902024537 70 58 3.0 7.0 0.00 0.00 0.00 81 1010.6
20260902024513 70 60 4.0 7.0 0.00 0.00 0.00 80 1014.0
20260902024008 70 56 3.0 7.0 0.00 0.00 0.00 80 1013.9
20260902023508 71 60 3.0 6.0 0.00 0.00 0.00 79 1014.0
20260902023037 71 56 2.0 6.0 0.00 0.00 0.00 79 1010.6
20260902023034 71 43 3.0 6.0 0.00 0.00 0.00 78 1013.9
20260902022507 71 63 3.0 6.0 0.00 0.00 0.00 77 1013.8
20260902022012 71 20 4.0 6.0 0.00 0.00 0.00 77 1013.6
20260902021538 71 34 4.0 6.0 0.00 0.00 0.00 77 1013.5
20260902021535 71 55 3.0 6.0 0.00 0.00 0.00 78 1010.2
20260902021014 71 20 2.0 4.0 0.00 0.00 0.00 77 1013.5
20260902020513 71 59 3.0 4.0 0.00 0.00 0.00 77 1013.4
20260902020032 71 57 2.0 5.0 0.00 0.00 0.00 78 1010.2
20260902020029 71 68 3.0 5.0 0.00 0.00 0.00 77 1013.4
20260902015516 71 59 3.0 6.0 0.00 0.00 0.00 77 1013.3
20260902015016 71 61 3.0 6.0 0.00 0.00 0.00 76 1013.3
20260902014535 72 53 2.0 5.0 0.00 0.00 0.00 76 1010.1
20260902014531 72 56 2.0 5.0 0.00 0.00 0.00 75 1013.4
20260902014006 72 58 2.0 4.0 0.00 0.00 0.00 74 1013.5
20260902013510 73 20 2.0 4.0 0.00 0.00 0.00 73 1013.5
20260902013029 73 72 0.0 4.0 0.00 0.00 0.00 73 1010.3
20260902013018 73 72 0.0 4.0 0.00 0.00 0.00 72 1013.5
20260902012508 73 98 2.0 4.0 0.00 0.00 0.00 72 1013.4
20260902012007 73 106 1.0 4.0 0.00 0.00 0.00 70 1013.4
20260902011531 73 73 1.0 5.0 0.00 0.00 0.00 69 1010.2
20260902011518 73 70 1.0 5.0 0.00 0.00 0.00 69 1013.4
20260902011012 73 92 3.0 5.0 0.00 0.00 0.00 70 1013.4
20260902010510 73 52 3.0 5.0 0.00 0.00 0.00 72 1013.4
20260902010033 73 28 1.0 5.0 0.00 0.00 0.00 74 1010.3
20260902010027 73 12 2.0 5.0 0.00 0.00 0.00 73 1013.5
20260902005514 73 25 3.0 5.0 0.00 0.00 0.00 73 1013.6
20260902005015 73 51 3.0 5.0 0.00 0.00 0.00 69 1013.7
20260902004530 73 15 2.0 4.0 0.00 0.00 0.00 64 1013.8
20260902004525 73 55 2.0 4.0 0.00 0.00 0.00 64 1010.7
20260902004013 74 24 1.0 3.0 0.00 0.00 0.00 63 1013.9
20260902003513 74 33 2.0 3.0 0.00 0.00 0.00 61 1013.8
20260902003033 74 39 1.0 4.0 0.00 0.00 0.00 59 1013.8
20260902003025 74 39 0.0 4.0 0.00 0.00 0.00 60 1010.6
20260902002505 74 52 1.0 4.0 0.00 0.00 0.00 57 1013.8
20260902002008 74 50 2.0 3.0 0.00 0.00 0.00 57 1013.7
20260902001539 73 60 1.0 4.0 0.00 0.00 0.00 57 1010.9
20260902001514 74 61 1.0 4.0 0.00 0.00 0.00 57 1014.0
20260902001009 73 26 2.0 4.0 0.00 0.00 0.00 58 1014.0
20260902000509 73 13 1.0 4.0 0.00 0.00 0.00 57 1014.1
20260902000035 73 349 1.0 4.0 0.00 0.00 0.00 58 1010.8
20260902000024 73 20 2.0 4.0 0.00 0.00 0.00 57 1014.0
20260901235510 73 6 2.0 4.0 0.00 0.00 0.00 58 1014.1
20260901235012 73 23 2.0 4.0 0.00 0.00 0.00 58 1014.2
20260901234527 72 4 2.0 4.0 0.00 0.00 0.00 58 1014.3
20260901234522 72 16 1.0 4.0 0.00 0.00 0.00 59 1011.1
20260901234016 72 3 1.0 3.0 0.00 0.00 0.00 62 1014.4
20260901233514 72 335 1.0 3.0 0.00 0.00 0.00 62 1014.3
20260901233027 73 309 2.0 3.0 0.00 0.00 0.00 65 1014.3
20260901233022 72 315 1.0 3.0 0.00 0.00 0.00 66 1011.2
20260901232514 73 336 0.0 3.0 0.00 0.00 0.00 63 1014.3
20260901232018 73 338 0.0 5.0 0.00 0.00 0.00 56 1014.2
20260901231531 73 328 3.0 5.0 0.00 0.00 0.00 60 1014.2
20260901231520 73 323 2.0 5.0 0.00 0.00 0.00 58 1011.0
20260901231005 74 14 3.0 5.0 0.00 0.00 0.00 68 1014.2
20260901230508 74 50 1.0 5.0 0.00 0.00 0.00 71 1014.2
20260901230032 74 5 3.0 5.0 0.00 0.00 0.00 73 1014.3
20260901230019 74 28 2.0 5.0 0.00 0.00 0.00 73 1011.1
20260901225508 74 342 2.0 4.0 0.00 0.00 0.00 72 1014.4
20260901225009 74 309 2.0 4.0 0.00 0.00 0.00 74 1014.6
20260901224528 75 319 1.0 3.0 0.00 0.00 0.00 73 1014.6
20260901224526 75 319 1.0 3.0 0.00 0.00 0.00 74 1011.4
20260901224012 76 318 0.0 1.0 0.00 0.00 0.00 68 1014.7
20260901223514 77 319 0.0 1.0 0.00 0.00 0.00 65 1014.6
20260901223028 77 138 0.0 1.0 0.00 0.00 0.00 64 1014.7
20260901223018 77 138 0.0 1.0 0.00 0.00 0.00 64 1011.4
20260901222514 77 138 0.0 3.0 0.00 0.00 0.00 63 1014.5
20260901222016 77 139 0.0 4.0 0.00 0.00 0.00 61 1014.4
20260901221533 77 118 1.0 5.0 0.00 0.00 0.00 60 1014.2
20260901221517 77 103 1.0 5.0 0.00 0.00 0.00 61 1011.0
20260901221016 77 75 3.0 5.0 0.00 0.00 0.00 60 1014.1
20260901220520 77 95 2.0 5.0 0.00 0.00 0.00 62 1014.0
20260901220055 77 112 1.0 5.0 0.00 0.00 0.00 65 1013.9
20260901220026 77 105 1.0 4.0 0.00 0.00 0.00 65 1010.7
20260901215508 77 43 2.0 5.0 0.00 0.00 0.00 63 1014.1
20260901215013 77 61 4.0 5.0 0.00 0.00 0.00 62 1014.3
20260901214519 78 56 2.0 4.0 0.00 0.00 0.00 63 1014.5
20260901214514 78 78 2.0 4.0 0.00 0.00 0.00 63 1011.3
20260901214013 78 58 2.0 4.0 0.00 0.00 0.00 62 1014.5
20260901213512 78 65 3.0 4.0 0.00 0.00 0.00 60 1014.6
20260901213057 78 81 2.0 4.0 0.00 0.00 0.00 58 1014.9
20260901213014 78 75 1.0 4.0 0.00 0.00 0.00 59 1011.7
20260901212514 78 74 1.0 4.0 0.00 0.00 0.00 57 1015.2
20260901212014 78 52 1.0 3.0 0.00 0.00 0.00 56 1015.3
20260901211528 79 32 1.0 2.0 0.00 0.00 0.00 56 1015.4
20260901211521 79 32 0.0 2.0 0.00 0.00 0.00 56 1012.0
20260901211013 78 82 0.0 1.0 0.00 0.00 0.00 57 1015.4
20260901210516 78 353 0.0 1.0 0.00 0.00 0.00 58 1015.5
20260901210031 78 127 0.0 1.0 0.00 0.00 0.00 58 1015.5
20260901210011 78 127 0.0 1.0 0.00 0.00 0.00 59 1012.1
20260901205520 78 128 0.0 1.0 0.00 0.00 0.00 59 1015.5
20260901205019 78 142 0.0 2.0 0.00 0.00 0.00 59 1015.8
20260901204538 77 142 1.0 4.0 0.00 0.00 0.00 60 1015.8
20260901204512 77 142 2.0 0.0 0.00 0.00 0.00 60 1012.4
20260901204010 78 119 3.0 4.0 0.00 0.00 0.00 59 1015.6
20260901203512 78 152 1.0 3.0 0.00 0.00 0.00 60 1015.6
20260901203044 77 166 1.0 4.0 0.00 0.00 0.00 60 1015.5
20260901203016 77 162 1.0 3.0 0.00 0.00 0.00 61 1012.2
20260901202513 77 98 1.0 5.0 0.00 0.00 0.00 59 1015.4
20260901202010 77 82 3.0 5.0 0.00 0.00 0.00 58 1015.4
20260901201527 77 131 2.0 5.0 0.00 0.00 0.00 58 1015.2
20260901201508 77 120 2.0 5.0 0.00 0.00 0.00 59 1011.9
20260901201017 77 141 2.0 6.0 0.00 0.00 0.00 59 1015.3
20260901200517 77 115 3.0 6.0 0.00 0.00 0.00 57 1015.3
20260901200034 77 121 1.0 6.0 0.00 0.00 0.00 59 1015.3
20260901200010 77 121 0.0 6.0 0.00 0.00 0.00 60 1011.9
20260901195516 77 52 4.0 6.0 0.00 0.00 0.00 59 1015.3
20260901195014 77 73 2.0 5.0 0.00 0.00 0.00 60 1015.3
20260901194540 77 82 0.0 3.0 0.00 0.00 0.00 61 1015.3
20260901194507 77 82 0.0 3.0 0.00 0.00 0.00 62 1011.9
20260901194021 77 58 2.0 4.0 0.00 0.00 0.00 61 1015.3
20260901193518 77 91 1.0 5.0 0.00 0.00 0.00 62 1015.1
20260901193019 77 77 2.0 6.0 0.00 0.00 0.00 62 1015.1
20260901193005 77 63 1.0 5.0 0.00 0.00 0.00 62 1011.8
20260901192512 77 45 3.0 7.0 0.00 0.00 0.00 60 1015.1
20260901192012 77 68 5.0 7.0 0.00 0.00 0.00 59 1015.1